Enterprise, AL

5:29 PM CST on February 27, 2017 (GMT -0600)
Fort Rucker / Ozark

Weather History for KLOR - February, 2013

Change the Weather History Date:

Tuesday, February 26, 2013

  Actual Average (KOZR) Record (KOZR)
Temperature  
Mean Temperature 58 °F -  
Max Temperature 66 °F 64 °F 78 °F (1999)
Min Temperature 50 °F 42 °F 33 °F (2002)
Degree Days  
Heating Degree Days 6    
Growing Degree Days 8 (Base 50)    
Moisture  
Dew Point 53 °F    
Average Humidity 77    
Maximum Humidity 100    
Minimum Humidity 38    
Precipitation  
Precipitation 0.38 in - - ()
Sea Level Pressure  
Sea Level Pressure 29.62 in    
Wind  
Wind Speed 9 mph (SW)    
Max Wind Speed 17 mph    
Max Gust Speed 26 mph    
Visibility 8 miles    
Events Rain , Thunderstorm    
Averages and records for this station are not official NWS values.
T = Trace of Precipitation, MM = Missing Value Source: NWS Daily Summary

Daily Weather History Graph

Daily Weather History Graph

Search for Another Location

Airport or City:

Trip Planner

Search our weather history database for the weather conditions in past years. The results will help you decide how hot, cold, wet, or windy it might be!

Date:

Astronomy

Feb. 26, 2013 Rise Set
Actual Time 6:12 AM CST 5:39 PM CST
Civil Twilight 5:48 AM CST 6:03 PM CST
Nautical Twilight 5:20 AM CST 6:31 PM CST
Astronomical Twilight 4:52 AM CST 6:59 PM CST
Moon 6:46 PM CST (2/26) 6:21 AM CST (2/26)
Length of Visible Light 12h 15m
Length of Day
11h 26m
Full, 99% of the Moon is Illuminated
Feb 26
Full
Mar 4
Last Quarter
Mar 11
New
Mar 19
First Quarter
Mar 27
Full

Hourly Weather History & Observations

Time (CST) Temp. Dew Point Humidity Pressure Visibility Wind Dir Wind Speed Gust Speed Precip Events Conditions
12:53 AM 62.1 °F 60.1 °F 93% 29.55 in 5.0 mi SE 10.4 mph 19.6 mph 0.13 in Rain Rain
1:34 AM 62.6 °F 60.8 °F 94% 29.53 in 9.0 mi SE 10.4 mph 20.7 mph 0.05 in Rain , Thunderstorm Light Thunderstorms and Rain
1:53 AM 63.0 °F 60.1 °F 90% 29.52 in 4.0 mi SE 9.2 mph 18.4 mph 0.11 in Rain , Thunderstorm Heavy Thunderstorms and Rain
2:03 AM 62.6 °F 60.8 °F 94% 29.51 in 2.5 mi SSE 8.1 mph 19.6 mph 0.04 in Rain Heavy Rain
2:09 AM 62.6 °F 60.8 °F 94% 29.50 in 5.0 mi SSE 10.4 mph 18.4 mph 0.05 in Rain Light Rain
2:29 AM 62.6 °F 60.8 °F 94% 29.55 in 10.0 mi WNW 9.2 mph - 0.05 in   Overcast
2:50 AM 64.4 °F 60.8 °F 88% 29.55 in 3.0 mi West 6.9 mph - 0.12 in Rain Light Rain
2:53 AM 64.0 °F 61.0 °F 90% 29.53 in 4.0 mi WNW 6.9 mph - 0.13 in Rain Light Rain
3:07 AM 62.6 °F 60.8 °F 94% 29.54 in 9.0 mi Calm Calm - 0.00 in   Overcast
3:24 AM 62.6 °F 60.8 °F 94% 29.52 in 5.0 mi East 3.5 mph - 0.01 in   Overcast
3:43 AM 62.6 °F 60.8 °F 94% 29.50 in 10.0 mi East 4.6 mph - 0.01 in   Scattered Clouds
3:53 AM 62.1 °F 61.0 °F 96% 29.49 in 9.0 mi Calm Calm - 0.01 in   Partly Cloudy
4:22 AM 62.6 °F 60.8 °F 94% 29.52 in 10.0 mi Calm Calm - N/A   Mostly Cloudy
4:39 AM 62.6 °F 60.8 °F 94% 29.53 in 10.0 mi SW 3.5 mph - N/A   Overcast
4:53 AM 62.1 °F 60.1 °F 93% 29.53 in 10.0 mi WSW 4.6 mph - N/A   Overcast
5:10 AM 60.8 °F 60.8 °F 100% 29.53 in 1.8 mi SSW 3.5 mph - N/A   Mostly Cloudy
5:18 AM 60.8 °F 60.8 °F 100% 29.53 in 2.0 mi WSW 3.5 mph - N/A   Mostly Cloudy
5:26 AM 60.8 °F 60.8 °F 100% 29.54 in 9.0 mi SW 5.8 mph - N/A   Scattered Clouds
5:53 AM 62.1 °F 60.1 °F 93% 29.54 in 10.0 mi WSW 8.1 mph - N/A   Scattered Clouds
6:53 AM 60.1 °F 55.0 °F 83% 29.57 in 10.0 mi WSW 11.5 mph 20.7 mph N/A   Clear
7:53 AM 60.1 °F 52.0 °F 75% 29.61 in 10.0 mi WSW 13.8 mph 23.0 mph N/A   Clear
8:53 AM 60.1 °F 48.9 °F 67% 29.64 in 10.0 mi WSW 15.0 mph 23.0 mph N/A   Clear
9:53 AM 63.0 °F 48.9 °F 60% 29.65 in 10.0 mi SW 12.7 mph 23.0 mph N/A   Mostly Cloudy
10:53 AM 63.0 °F 46.0 °F 54% 29.67 in 10.0 mi WSW 17.3 mph 21.9 mph N/A   Partly Cloudy
11:53 AM 64.0 °F 44.1 °F 48% 29.66 in 10.0 mi WSW 12.7 mph 19.6 mph N/A   Clear
12:53 PM 64.9 °F 44.1 °F 47% 29.65 in 10.0 mi WSW 17.3 mph 26.5 mph N/A   Clear
1:53 PM 66.0 °F 42.1 °F 42% 29.65 in 10.0 mi WSW 15.0 mph 26.5 mph N/A   Partly Cloudy
2:53 PM 66.0 °F 39.9 °F 38% 29.64 in 10.0 mi SW 16.1 mph 25.3 mph N/A   Scattered Clouds
3:53 PM 64.0 °F 39.9 °F 41% 29.65 in 10.0 mi WSW 11.5 mph 20.7 mph N/A   Clear
4:53 PM 62.1 °F 37.9 °F 41% 29.68 in 10.0 mi WSW 12.7 mph 21.9 mph N/A   Clear
5:53 PM 57.9 °F 43.0 °F 58% 29.73 in 10.0 mi SW 8.1 mph - N/A   Clear
6:53 PM 55.0 °F 44.1 °F 67% 29.76 in 10.0 mi SW 9.2 mph - N/A   Clear
7:53 PM 54.0 °F 44.1 °F 69% 29.80 in 10.0 mi WSW 5.8 mph - N/A   Clear
8:53 PM 53.1 °F 44.1 °F 71% 29.84 in 10.0 mi West 8.1 mph - N/A   Clear
9:53 PM 53.1 °F 44.1 °F 71% 29.86 in 10.0 mi West 5.8 mph - N/A   Clear
10:53 PM 51.1 °F 39.0 °F 63% 29.88 in 10.0 mi NW 10.4 mph - N/A   Clear
11:53 PM 50.0 °F 37.0 °F 61% 29.89 in 10.0 mi NW 9.2 mph - N/A   Clear